Sallisaw, OK

10:01 PM CST on January 21, 2017 (GMT -0600)
Sallisaw Municipal

Weather History for KJSV - March, 2014

Change the Weather History Date:

Tuesday, March 18, 2014

  Actual Average Record
Temperature  
Mean Temperature 58 °F -  
Max Temperature 75 °F 67 °F 81 °F (1982)
Min Temperature 41 °F 43 °F 18 °F (1960)
Degree Days  
Heating Degree Days 7    
Growing Degree Days 8 (Base 50)    
Moisture  
Dew Point 38 °F    
Average Humidity 59    
Maximum Humidity 87    
Minimum Humidity 27    
Precipitation  
Precipitation 0.00 in - - ()
Sea Level Pressure  
Sea Level Pressure 29.62 in    
Wind  
Wind Speed 10 mph (SE)    
Max Wind Speed 22 mph    
Max Gust Speed 31 mph    
Visibility 10 miles    
Events      
Averages and records for this station are not official NWS values.
T = Trace of Precipitation, MM = Missing Value Source: NWS Daily Summary

Daily Weather History Graph

Daily Weather History Graph

Search for Another Location

Airport or City:

Trip Planner

Search our weather history database for the weather conditions in past years. The results will help you decide how hot, cold, wet, or windy it might be!

Date:

Astronomy

Mar. 18, 2014 Rise Set
Actual Time 7:25 AM CDT 7:29 PM CDT
Civil Twilight 7:00 AM CDT 7:54 PM CDT
Nautical Twilight 6:30 AM CDT 8:24 PM CDT
Astronomical Twilight 6:00 AM CDT 8:54 PM CDT
Moon 9:41 PM CDT (3/18) 8:20 AM CDT (3/18)
Length of Visible Light 12h 54m
Length of Day
12h 03m
Waning Gibbous, 96% of the Moon is Illuminated
Mar 18
Waning Gibbous
Mar 23
Last Quarter
Mar 30
New
Apr 7
First Quarter
Apr 15
Full

Hourly Weather History & Observations

Time (CDT) Temp. Windchill Dew Point Humidity Pressure Visibility Wind Dir Wind Speed Gust Speed Precip Events Conditions
12:15 AM 44.6 °F 42.2 °F 35.6 °F 71% 29.72 in 10.0 mi East 4.6 mph - N/A   Clear
12:35 AM 44.6 °F 43.1 °F 35.6 °F 71% 29.72 in 10.0 mi East 3.5 mph - N/A   Clear
12:55 AM 42.8 °F 40.1 °F 35.6 °F 76% 29.72 in 10.0 mi East 4.6 mph - N/A   Clear
1:15 AM 42.8 °F 39.3 °F 35.6 °F 76% 29.72 in 10.0 mi East 5.8 mph - N/A   Clear
1:35 AM 44.6 °F 40.7 °F 35.6 °F 71% 29.71 in 10.0 mi East 6.9 mph - N/A   Clear
1:55 AM 44.6 °F 40.7 °F 35.6 °F 71% 29.70 in 10.0 mi East 6.9 mph - N/A   Clear
2:15 AM 42.8 °F 38.0 °F 35.6 °F 76% 29.70 in 10.0 mi East 8.1 mph - N/A   Clear
2:35 AM 42.8 °F 39.3 °F 35.6 °F 76% 29.70 in 10.0 mi East 5.8 mph - N/A   Clear
2:55 AM 42.8 °F 38.6 °F 35.6 °F 76% 29.69 in 10.0 mi East 6.9 mph - N/A   Clear
3:15 AM 42.8 °F 38.0 °F 37.4 °F 81% 29.67 in 10.0 mi East 8.1 mph - N/A   Clear
3:35 AM 42.8 °F 38.0 °F 37.4 °F 81% 29.67 in 10.0 mi East 8.1 mph - N/A   Clear
3:55 AM 42.8 °F 38.0 °F 37.4 °F 81% 29.66 in 10.0 mi East 8.1 mph - N/A   Clear
4:15 AM 42.8 °F 37.5 °F 37.4 °F 81% 29.65 in 10.0 mi East 9.2 mph - N/A   Clear
4:35 AM 42.8 °F 37.5 °F 37.4 °F 81% 29.65 in 10.0 mi East 9.2 mph - N/A   Clear
4:55 AM 42.8 °F 38.0 °F 37.4 °F 81% 29.64 in 10.0 mi East 8.1 mph - N/A   Clear
5:15 AM 42.8 °F 37.0 °F 37.4 °F 81% 29.64 in 10.0 mi ESE 10.4 mph - N/A   Clear
5:35 AM 42.8 °F 38.0 °F 37.4 °F 81% 29.64 in 10.0 mi East 8.1 mph - N/A   Clear
5:55 AM 41.0 °F 35.8 °F 37.4 °F 87% 29.65 in 10.0 mi East 8.1 mph - N/A   Clear
6:15 AM 41.0 °F 35.8 °F 37.4 °F 87% 29.65 in 10.0 mi East 8.1 mph - N/A   Clear
6:35 AM 41.0 °F 35.8 °F 37.4 °F 87% 29.65 in 10.0 mi East 8.1 mph - N/A   Clear
6:55 AM 41.0 °F 35.2 °F 37.4 °F 87% 29.64 in 10.0 mi East 9.2 mph - N/A   Clear
7:15 AM 41.0 °F 35.8 °F 37.4 °F 87% 29.64 in 10.0 mi East 8.1 mph - N/A   Clear
7:35 AM 42.8 °F 36.6 °F 37.4 °F 81% 29.64 in 10.0 mi ESE 11.5 mph - N/A   Clear
7:55 AM 42.8 °F 37.0 °F 37.4 °F 81% 29.63 in 10.0 mi East 10.4 mph - N/A   Clear
8:15 AM 42.8 °F 36.2 °F 37.4 °F 81% 29.63 in 10.0 mi East 12.7 mph - N/A   Clear
8:35 AM 42.8 °F 37.5 °F 37.4 °F 81% 29.63 in 10.0 mi ESE 9.2 mph - N/A   Clear
8:55 AM 44.6 °F 38.1 °F 37.4 °F 76% 29.62 in 10.0 mi East 13.8 mph 20.7 mph N/A   Clear
9:15 AM 46.4 °F 41.5 °F 37.4 °F 71% 29.62 in 10.0 mi East 10.4 mph - N/A   Clear
9:35 AM 50.0 °F - 39.2 °F 66% 29.62 in 10.0 mi East 11.5 mph 16.1 mph N/A   Clear
9:55 AM 50.0 °F - 39.2 °F 66% 29.62 in 10.0 mi East 12.7 mph - N/A   Clear
10:15 AM 53.6 °F - 39.2 °F 58% 29.62 in 10.0 mi ESE 9.2 mph 16.1 mph N/A   Clear
10:35 AM 57.2 °F - 37.4 °F 48% 29.62 in 10.0 mi SE 12.7 mph 17.3 mph N/A   Clear
10:55 AM 59.0 °F - 37.4 °F 45% 29.62 in 10.0 mi SE 11.5 mph 17.3 mph N/A   Clear
11:15 AM 60.8 °F - 35.6 °F 39% 29.61 in 10.0 mi SSE 10.4 mph 19.6 mph N/A   Clear
11:35 AM 62.6 °F - 35.6 °F 37% 29.61 in 10.0 mi South 12.7 mph 23.0 mph N/A   Clear
11:55 AM 62.6 °F - 35.6 °F 37% 29.59 in 10.0 mi South 18.4 mph 26.5 mph N/A   Clear
12:15 PM 64.4 °F - 35.6 °F 34% 29.58 in 10.0 mi South 19.6 mph 31.1 mph N/A   Clear
12:35 PM 64.4 °F - 35.6 °F 34% 29.57 in 10.0 mi South 21.9 mph 28.8 mph N/A   Clear
12:55 PM 64.4 °F - 35.6 °F 34% 29.57 in 10.0 mi SSW 21.9 mph 28.8 mph N/A   Clear
1:15 PM 66.2 °F - 35.6 °F 32% 29.57 in 10.0 mi South 21.9 mph 31.1 mph N/A   Clear
1:35 PM 68.0 °F - 37.4 °F 33% 29.57 in 10.0 mi SSW 19.6 mph 25.3 mph N/A   Clear
1:55 PM 68.0 °F - 37.4 °F 33% 29.56 in 10.0 mi SSW 20.7 mph 27.6 mph N/A   Clear
2:15 PM 69.8 °F - 39.2 °F 33% 29.55 in 10.0 mi SSW 15.0 mph 19.6 mph N/A   Clear
2:35 PM 69.8 °F - 39.2 °F 33% 29.55 in 10.0 mi SSW 18.4 mph 23.0 mph N/A   Clear
2:55 PM 69.8 °F - 39.2 °F 33% 29.54 in 10.0 mi South 18.4 mph 26.5 mph N/A   Clear
3:15 PM 71.6 °F - 37.4 °F 29% 29.53 in 10.0 mi South 16.1 mph 27.6 mph N/A   Clear
3:35 PM 71.6 °F - 39.2 °F 31% 29.54 in 10.0 mi South 18.4 mph 26.5 mph N/A   Clear
3:55 PM 73.4 °F - 39.2 °F 29% 29.54 in 10.0 mi SSW 18.4 mph 25.3 mph N/A   Clear
4:15 PM 73.4 °F - 41.0 °F 31% 29.54 in 10.0 mi SSW 12.7 mph 19.6 mph N/A   Clear
4:35 PM 73.4 °F - 41.0 °F 31% 29.54 in 10.0 mi SSW 15.0 mph - N/A   Clear
4:55 PM 75.2 °F - 41.0 °F 29% 29.54 in 10.0 mi SSW 15.0 mph 21.9 mph N/A   Clear
5:15 PM 75.2 °F - 39.2 °F 27% 29.54 in 10.0 mi SSW 13.8 mph 25.3 mph N/A   Clear
5:35 PM 73.4 °F - 41.0 °F 31% 29.54 in 10.0 mi SSW 11.5 mph - N/A   Clear
5:50 PM 73.4 °F - 41.0 °F 31% 29.54 in 10.0 mi SSW 13.8 mph 17.3 mph N/A   Clear